Location: Devore Heights
(34.2372°N, 117.4156°W)
Time: 08:41:43
(UTC+00:00)

Vanguard 1 Rocket - Pass Details

Date: 21 September 2024
Orbit: 650 x 4218 km, 34.3° (Epoch: 09 October)

Event Time Altitude Azimuth Distance (km) Brightness Sun altitude
Rises 17:25:42 0° 287° (WNW) 7,658 11.7 43.4°
Reaches altitude 10° 17:31:13 10° 280° (W) 6,969 11.6 44.2°
Maximum altitude 17:52:05 36° 225° (SW) 5,501 11.8 47.4°
Drops below altitude 10° 18:11:52 10° 167° (SSE) 6,510 12.5 50.0°
Sets 18:16:57 0° 158° (SSE) 7,112 12.6 50.6°
